Orbcomm C5

operational
NORAD ID: 25479 Int'l Des: 1998-053 Owner: ORBC Country: US Constellation: orbcomm
LEOCIRCULAR

About Orbcomm C5

Description loading...

Live Position

Loading 3D Globe...

Upcoming Passes

Altitude History

Altitude vs Time

uPlot chart will show altitude changes over time

Two-Line Element Set

1 25479U 98053E 26062.19616501 .00001209 00000-0 43496-3 0 9998
2 25479 45.0060 118.5912 0002807 130.8484 229.2608 14.38867312435033
Epoch: Mar 3, 2026 • Age: 8 hours

Current Status

Altitude 763.3 km
Velocity 7.48 km/s
Sub-Earth Point 33.32°N, 126.54°W
Launch Date Sep 23, 1998
Age 27.4 years
Type other

Technical Details

Classification Payload
Mass 42.00 kg
Dry Mass 42.00 kg
Total Mass 42.00 kg
Length 0.20 m
Diameter 1.00 m
Span 4.30 m
Shape Cyl + 2 Pan + Ant
Manufacturer OSCG
Bus Type Microstar
Phase Status Unknown Transfer Status
Owner/State ORBC/US

Large Constellations

Loading constellations...